| time (UTC) | temp C | wind direction | speed KPH | gust KPH | rain 1hr cm | rain 24hr cm | rain mn cm | humidity % | barometer mb |
| 20260506213526 | 8 | 341 | 3.2 | 6.4 | 10.69 | 25.22 | 24.89 | 92 | |
| 20260506212613 | 8 | 341 | 1.6 | 4.8 | 10.64 | 25.22 | 24.71 | 92 | |
| 20260506211525 | 8 | 325 | 1.6 | 4.8 | 10.64 | 25.22 | 24.54 | 91 | |
| 20260506210523 | 8 | 346 | 3.2 | 4.8 | 10.69 | 25.20 | 24.36 | 91 | |
| 20260506205550 | 8 | 342 | 3.2 | 4.8 | 10.69 | 25.20 | 24.18 | 90 | |
| 20260506204533 | 8 | 352 | 3.2 | 6.4 | 10.64 | 25.20 | 24.00 | 90 | |
| 20260506203519 | 9 | 348 | 1.6 | 4.8 | 10.64 | 25.20 | 23.83 | 90 | |
| 20260506202532 | 9 | 333 | 1.6 | 3.2 | 10.69 | 25.17 | 23.65 | 90 | |
| 20260506201526 | 9 | 360 | 1.6 | 3.2 | 10.69 | 25.17 | 23.47 | 90 | |
| 20260506200532 | 9 | 353 | 1.6 | 4.8 | 10.62 | 25.17 | 23.29 | 89 | |
| 20260506195524 | 9 | 360 | 1.6 | 4.8 | 10.62 | 25.15 | 23.11 | 89 | |
| 20260506194532 | 9 | 352 | 1.6 | 3.2 | 10.69 | 25.15 | 22.94 | 89 | |
| 20260506193528 | 9 | 356 | 1.6 | 4.8 | 10.74 | 25.15 | 22.76 | 88 | |
| 20260506192532 | 9 | 348 | 3.2 | 8.0 | 10.69 | 25.15 | 22.58 | 88 | |
| 20260506191526 | 9 | 353 | 3.2 | 6.4 | 10.67 | 25.12 | 22.40 | 88 | |
| 20260506190534 | 9 | 342 | 3.2 | 8.0 | 10.77 | 25.12 | 22.23 | 88 | |
| 20260506185524 | 9 | 359 | 3.2 | 8.0 | 10.77 | 25.12 | 22.05 | 88 | |
| 20260506184532 | 9 | 25 | 3.2 | 6.4 | 10.62 | 25.12 | 21.87 | 88 | |
| 20260506183529 | 9 | 37 | 3.2 | 8.0 | 10.57 | 25.10 | 21.69 | 88 | |
| 20260506182529 | 9 | 1 | 3.2 | 6.4 | 10.64 | 25.10 | 21.51 | 89 | |
| 20260506181525 | 9 | 350 | 3.2 | 6.4 | 10.64 | 25.10 | 21.34 | 88 | |
| 20260506180532 | 10 | 337 | 3.2 | 6.4 | 10.54 | 25.10 | 21.16 | 87 | |
| 20260506175527 | 10 | 356 | 4.8 | 11.3 | 10.44 | 25.07 | 20.96 | 85 | |
| 20260506174532 | 10 | 11 | 4.8 | 12.9 | 10.57 | 25.07 | 20.80 | 84 | |
| 20260506173542 | 10 | 5 | 4.8 | 11.3 | 10.64 | 25.07 | 20.62 | 82 | |
| 20260506172525 | 10 | 8 | 4.8 | 8.0 | 10.54 | 25.07 | 20.45 | 82 | |
| 20260506171526 | 10 | 359 | 6.4 | 14.5 | 10.57 | 25.07 | 20.27 | 81 | |
| 20260506170614 | 10 | 359 | 6.4 | 11.3 | 10.62 | 25.04 | 20.09 | 80 | |
| 20260506165529 | 11 | 6 | 4.8 | 11.3 | 10.64 | 25.04 | 19.91 | 79 | |
| 20260506164532 | 11 | 354 | 3.2 | 8.0 | 10.57 | 25.04 | 19.74 | 78 | |
| 20260506163524 | 11 | 348 | 6.4 | 16.1 | 10.46 | 25.04 | 19.56 | 77 | |
| 20260506162520 | 11 | 1 | 6.4 | 11.3 | 10.52 | 25.02 | 19.38 | 76 | |
| 20260506161526 | 11 | 355 | 4.8 | 11.3 | 10.46 | 25.02 | 19.20 | 75 | |
| 20260506160532 | 11 | 350 | 6.4 | 12.9 | 10.39 | 25.02 | 19.02 | 75 | |
| 20260506155526 | 11 | 341 | 6.4 | 11.3 | 10.44 | 25.02 | 18.85 | 74 | |
| 20260506154535 | 11 | 350 | 6.4 | 12.9 | 10.46 | 24.99 | 18.69 | 74 | |
| 20260506153546 | 11 | 348 | 6.4 | 14.5 | 10.54 | 24.99 | 18.52 | 75 | |
| 20260506152533 | 11 | 349 | 6.4 | 14.5 | 10.52 | 24.99 | 18.34 | 75 | |
| 20260506151524 | 11 | 347 | 6.4 | 11.3 | 10.52 | 24.99 | 18.16 | 76 | |
| 20260506150552 | 11 | 6 | 9.7 | 20.9 | 10.67 | 24.97 | 17.98 | 77 | |
| 20260506145546 | 11 | 12 | 4.8 | 8.0 | 10.64 | 24.97 | 17.81 | 77 | |
| 20260506144537 | 11 | 352 | 4.8 | 11.3 | 10.64 | 24.97 | 17.63 | 77 | |
| 20260506143527 | 11 | 358 | 6.4 | 12.9 | 10.64 | 24.97 | 17.45 | 78 | |
| 20260506142532 | 11 | 339 | 8.0 | 17.7 | 10.74 | 24.97 | 17.27 | 79 | |
| 20260506141529 | 11 | 355 | 6.4 | 14.5 | 10.74 | 24.94 | 17.09 | 78 | |
| 20260506140532 | 11 | 6 | 8.0 | 17.7 | 10.64 | 24.94 | 16.92 | 78 | |
| 20260506135524 | 11 | 11 | 9.7 | 17.7 | 10.67 | 24.94 | 16.74 | 79 | |
| 20260506134527 | 12 | 5 | 9.7 | 19.3 | 10.74 | 24.94 | 16.56 | 79 | |
| 20260506133524 | 12 | 351 | 8.0 | 16.1 | 10.74 | 24.92 | 16.38 | 79 | |
| 20260506132533 | 12 | 345 | 4.8 | 9.7 | 10.64 | 24.92 | 16.21 | 80 | |
| 20260506131525 | 11 | 347 | 6.4 | 11.3 | 10.69 | 24.92 | 16.03 | 81 | |
| 20260506130554 | 12 | 0 | 6.4 | 11.3 | 10.79 | 24.92 | 15.85 | 81 | |
| 20260506125526 | 11 | 32 | 4.8 | 11.3 | 10.82 | 24.92 | 15.67 | 82 | |
| 20260506124545 | 11 | 6 | 8.0 | 14.5 | 10.74 | 24.89 | 15.49 | 84 | |
| 20260506123524 | 11 | 358 | 8.0 | 16.1 | 10.74 | 24.89 | 15.32 | 85 | |
| 20260506122532 | 11 | 9 | 11.3 | 19.3 | 10.79 | 24.89 | 15.14 | 85 | |
| 20260506121525 | 12 | 357 | 6.4 | 16.1 | 10.74 | 24.89 | 14.96 | 87 | |
| 20260506120534 | 12 | 5 | 8.0 | 12.9 | 10.64 | 24.87 | 14.78 | 87 | |
| 20260506115547 | 11 | 19 | 8.0 | 16.1 | 10.57 | 24.87 | 14.61 | 87 | |
| 20260506114521 | 11 | 357 | 6.4 | 12.9 | 10.67 | 24.87 | 14.43 | 88 | |
| 20260506113524 | 11 | 40 | 6.4 | 11.3 | 10.62 | 24.84 | 14.25 | 89 | |
| 20260506112534 | 11 | 37 | 4.8 | 12.9 | 10.52 | 24.84 | 14.07 | 89 | |
| 20260506111546 | 11 | 6 | 8.0 | 16.1 | 10.54 | 24.84 | 13.89 | 90 | |
| 20260506110535 | 11 | 3 | 6.4 | 12.9 | 10.54 | 24.84 | 13.72 | 91 | |
| 20260506105526 | 10 | 343 | 6.4 | 11.3 | 10.57 | 24.84 | 13.54 | 91 | |
| 20260506104532 | 10 | 355 | 6.4 | 12.9 | 10.39 | 24.82 | 13.36 | 92 | |
| 20260506103525 | 10 | 352 | 8.0 | 16.1 | 10.39 | 24.82 | 13.18 | 92 | |
| 20260506102554 | 10 | 341 | 6.4 | 12.9 | 10.52 | 24.82 | 13.00 | 94 | |
| 20260506101528 | 10 | 346 | 6.4 | 16.1 | 10.44 | 24.79 | 12.83 | 94 | |
| 20260506100554 | 10 | 351 | 6.4 | 16.1 | 10.41 | 24.82 | 12.65 | 94 | |
| 20260506095526 | 10 | 327 | 4.8 | 14.5 | 10.41 | 24.79 | 12.47 | 95 | |
| 20260506094537 | 10 | 350 | 4.8 | 12.9 | 10.57 | 24.82 | 12.32 | 95 | |
| 20260506093524 | 10 | 359 | 6.4 | 16.1 | 10.62 | 24.79 | 12.14 | 96 | |
| 20260506092532 | 10 | 353 | 6.4 | 12.9 | 10.44 | 24.79 | 11.96 | 96 | |
| 20260506091524 | 10 | 347 | 6.4 | 11.3 | 10.52 | 24.79 | 11.79 | 96 | |
| 20260506090526 | 10 | 350 | 4.8 | 12.9 | 10.64 | 24.79 | 11.61 | 96 | |
| 20260506085549 | 10 | 337 | 6.4 | 11.3 | 10.59 | 24.77 | 11.43 | 97 | |
| 20260506084534 | 9 | 358 | 4.8 | 14.5 | 10.54 | 24.77 | 11.25 | 97 | |
| 20260506083524 | 9 | 344 | 6.4 | 19.3 | 10.59 | 24.77 | 11.07 | 97 | |
| 20260506082534 | 9 | 346 | 6.4 | 12.9 | 10.74 | 24.77 | 10.92 | 97 | |
| 20260506081546 | 9 | 348 | 6.4 | 11.3 | 10.72 | 24.74 | 10.72 | 97 | |
| 20260506080522 | 8 | 355 | 8.0 | 17.7 | 10.59 | 24.74 | 10.54 | 97 | |
| 20260506073520 | 8 | 351 | 8.0 | 14.5 | 10.62 | 24.71 | 10.01 | 98 | |
| 20260506072534 | 8 | 360 | 6.4 | 11.3 | 10.49 | 24.71 | 9.83 | 98 | |
| 20260506071524 | 8 | 357 | 4.8 | 12.9 | 10.49 | 24.71 | 9.65 | 98 | |
| 20260506070535 | 8 | 326 | 4.8 | 11.3 | 10.57 | 24.71 | 9.50 | 98 | |
| 20260506061526 | 8 | 345 | 4.8 | 9.7 | 10.52 | 24.69 | 8.61 | 98 | |
| 20260506060532 | 8 | 345 | 4.8 | 8.0 | 10.41 | 24.69 | 8.43 | 98 | |
| 20260506050532 | 8 | 343 | 6.4 | 12.9 | 10.36 | 24.69 | 7.39 | 98 | |
| 20260506044557 | 8 | 348 | 4.8 | 9.7 | 10.26 | 24.69 | 7.04 | 98 | |
| 20260506043523 | 8 | 337 | 6.4 | 11.3 | 10.29 | 24.69 | 6.86 | 98 | |
| 20260506042525 | 8 | 357 | 4.8 | 11.3 | 10.34 | 24.66 | 6.71 | 98 | |
| 20260506041526 | 8 | 358 | 4.8 | 9.7 | 10.34 | 24.69 | 6.53 | 98 | |
| 20260506040532 | 8 | 345 | 6.4 | 16.1 | 10.29 | 24.66 | 6.35 | 98 | |
| 20260506035524 | 8 | 338 | 4.8 | 9.7 | 10.29 | 24.66 | 6.17 | 98 | |
| 20260506034534 | 8 | 344 | 4.8 | 11.3 | 10.41 | 24.69 | 6.02 | 98 | |
| 20260506033524 | 8 | 347 | 4.8 | 12.9 | 10.39 | 24.66 | 5.84 | 98 | |
| 20260506032521 | 8 | 349 | 4.8 | 9.7 | 10.26 | 24.66 | 5.66 | 98 | |
| 20260506031544 | 8 | 350 | 4.8 | 8.0 | 10.36 | 24.66 | 5.49 | 98 | |
| 20260506030554 | 8 | 351 | 6.4 | 11.3 | 10.39 | 24.66 | 5.33 | 98 | |
| 20260506025520 | 8 | 349 | 4.8 | 11.3 | 10.36 | 24.66 | 5.16 | 98 | |
| 20260506024532 | 8 | 348 | 4.8 | 11.3 | 10.29 | 24.66 | 4.98 | 98 | |
| 20260506023546 | 8 | 2 | 6.4 | 11.3 | 10.36 | 24.64 | 4.80 | 98 | |
| 20260506022534 | 8 | 345 | 4.8 | 14.5 | 10.44 | 24.64 | 4.62 | 98 | |
| 20260506021548 | 8 | 357 | 4.8 | 9.7 | 10.39 | 24.64 | 4.45 | 98 | |
| 20260506020532 | 8 | 342 | 4.8 | 9.7 | 10.39 | 24.64 | 4.29 | 98 | |
| 20260506015710 | 8 | 331 | 6.4 | 11.3 | 10.41 | 24.64 | 4.11 | 98 | |
| 20260506014550 | 8 | 341 | 3.2 | 9.7 | 10.46 | 24.64 | 3.94 | 98 | |
| 20260506013524 | 8 | 351 | 6.4 | 11.3 | 10.46 | 24.64 | 3.76 | 98 | |
| 20260506012532 | 8 | 8 | 6.4 | 16.1 | 10.36 | 24.64 | 3.58 | 98 | |
| 20260506011524 | 8 | 347 | 4.8 | 11.3 | 10.36 | 24.64 | 3.40 | 98 | |
| 20260506010532 | 8 | 330 | 3.2 | 9.7 | 10.41 | 24.61 | 3.25 | 98 | |
| 20260506005524 | 8 | 343 | 3.2 | 8.0 | 10.44 | 24.61 | 3.07 | 98 | |
| 20260506004528 | 8 | 347 | 4.8 | 9.7 | 10.39 | 24.61 | 2.90 | 98 | |
| 20260506003524 | 8 | 359 | 3.2 | 6.4 | 10.31 | 24.61 | 2.72 | 98 | |
| 20260506002554 | 8 | 347 | 3.2 | 6.4 | 10.41 | 24.61 | 2.54 | 98 | |
| 20260506001528 | 8 | 348 | 4.8 | 11.3 | 10.36 | 24.61 | 23.88 | 98 | |
| 20260506000532 | 8 | 344 | 4.8 | 9.7 | 10.24 | 24.61 | 22.10 | 98 | |
| 20260505235524 | 8 | 345 | 4.8 | 8.0 | 10.16 | 24.61 | 20.32 | 98 | |
| 20260505234524 | 8 | 351 | 6.4 | 11.3 | 10.26 | 24.61 | 18.64 | 98 | |
| 20260505233524 | 8 | 358 | 4.8 | 9.7 | 10.21 | 24.61 | 16.94 | 98 | |
| 20260505232532 | 9 | 356 | 6.4 | 12.9 | 10.03 | 24.61 | 15.19 | 98 | |
| 20260505231544 | 9 | 343 | 4.8 | 11.3 | 10.11 | 24.61 | 13.49 | 98 | |
| 20260505230533 | 9 | 4 | 6.4 | 11.3 | 10.16 | 24.61 | 11.86 | 97 | |
| 20260505225524 | 9 | 350 | 4.8 | 11.3 | 10.13 | 24.61 | 10.13 | 97 | |
| 20260505224521 | 9 | 356 | 6.4 | 11.3 | 10.03 | 24.61 | 8.38 | 97 | |
| 20260505223523 | 9 | 347 | 4.8 | 8.0 | 10.13 | 24.61 | 6.71 | 97 | |
| 20260505222532 | 9 | 348 | 4.8 | 9.7 | 10.21 | 24.61 | 5.13 | 97 | |
| 20260505221524 | 9 | 349 | 4.8 | 11.3 | 10.21 | 24.61 | 3.38 | 97 | |
| 20260505220532 | 9 | 347 | 4.8 | 9.7 | 10.16 | 24.64 | 17.07 | 97 | |
| 20260505215549 | 9 | 346 | 4.8 | 9.7 | 10.13 | 24.64 | 24.64 | 97 | |
| 20260505214534 | 10 | 351 | 6.4 | 14.5 | 10.24 | 24.61 | 24.46 | 97 |